Regional Weather Roundup
Issued by NWS New Orleans/Baton Rouge, LA

Home | Current Version | Previous Version | Text Only | Print | Product List | Glossary On
Versions: 1 2 3 4 5 6 7 8 9 10 11 12 13 14 15 16 17 18 19 20 21 22 23 24 25 26 27
000
ASUS44 KLIX 271814
RWRLIX
NEW ORLEANS REGIONAL WEATHER ROUNDUP
NATIONAL WEATHER SERVICE NEW ORLEANS LA
100 PM CDT THU JUL 27 2017

NOTE: "FAIR" INDICATES FEW OR NO CLOUDS BELOW 12,000 FEET WITH NO
      SIGNIFICANT WEATHER AND/OR OBSTRUCTIONS TO VISIBILITY.
      SKY/WX - SKY CONDITION AND SIGNIFICANT WEATHER.
      TMP - AIR TEMPERATURE.     DP    - DEWPOINT TEMPERATURE.
      RH  - RELATIVE HUMIDITY.   PRES  - PRESSURE.
      HI  - HEAT INDEX.          WCI   - WIND CHILL INDEX.

*  THESE STATIONS ARE NOT NWS OR FAA STATIONS AND ARE NOT UNDER
   NWS QUALITY CONTROL.

LAZ038-040-048-061>063-065>067-069-271900-
SOUTHEAST LOUISIANA

CITY           SKY/WX    TMP DP  RH WIND       PRES   REMARKS
N.O. INTL ARPT MOSUNNY   92  69  47 NW7       30.06F HX  97
6HR MIN TEMP:  78; 6HR MAX TEMP:  92;

N.O. LAKEFRONT MOSUNNY   89  78  70 NW7       30.06F HX 103
6HR MIN TEMP:  83; 6HR MAX TEMP:  90;

N.O. DOWNTOWN*   N/A     92  69  47 VRB7        N/A  HX  97
6HR MIN TEMP:  82; 6HR MAX TEMP:  93;

RESERVE*         N/A     94  74  53 N3        30.06F HX 104
6HR MIN TEMP:  78; 6HR MAX TEMP:  95;

SLIDELL        MOSUNNY   92  71  50 W3        30.05F HX  98
6HR MIN TEMP:  73; 6HR MAX TEMP:  93;

BATON ROUGE    MOSUNNY   92  72  51 VRB7      30.07F HX  99
6HR MIN TEMP:  75; 6HR MAX TEMP:  92;

BOOTHVILLE     SUNNY     91  75  59 VRB5      30.06F HX 101
6HR MIN TEMP:  82; 6HR MAX TEMP:  91;

BELLE CHASSE   MOSUNNY   90  76  62 CALM      30.05F HX 102
6HR MIN TEMP:  81; 6HR MAX TEMP:  90;

BOGALUSA*      MOCLDY    93  71  48 N3        30.07F HX  99
6HR MIN TEMP:  74; 6HR MAX TEMP:  93;

GALLIANO*      CLEAR     92  70  48 E6        30.06F HX  97
6HR MIN TEMP:  78; 6HR MAX TEMP:  92;

NEW ROADS*       N/A     88  73  61 W3        30.07F HX  96
6HR MIN TEMP:  72; 6HR MAX TEMP:  88; 6HR PCP:  0.03;

GONZALES*        N/A     91  72  53 CALM      30.05F HX  98
6HR MIN TEMP:  76; 6HR MAX TEMP:  91;

HAMMOND*       SUNNY     95  63  34 NE3       30.06F HX  96
HOUMA*         PTSUNNY   90  73  58 N5        30.06F HX  98
PORT FOURCHON* PTCLDY    91  73  55 VRB3G12   30.06F HX 100

$$

MSZ070-080>082-271900-
SOUTHERN MISSISSIPPI

CITY           SKY/WX    TMP DP  RH WIND       PRES   REMARKS
MCCOMB         MOSUNNY   90  72  55 VRB3      30.07F HX  97
6HR MIN TEMP:  70; 6HR MAX TEMP:  91;

GULFPORT       MOSUNNY   94  73  50 NW7       30.03F HX 103
6HR MIN TEMP:  76; 6HR MAX TEMP:  94;

BILOXI         SUNNY     92  74  54 CALM      30.03F HX 102
6HR MIN TEMP:  76; 6HR MAX TEMP:  93;

PASCAGOULA     PTSUNNY   91  75  59 NE6       30.03F HX 101
6HR MIN TEMP:  75; 6HR MAX TEMP:  94;

STENNIS ARPT*  MOSUNNY   91  73  55 N6        30.04F HX 100

$$

COASTAL OBSERVATIONS
LAKE AND NEARSHORE STATIONS

STATION/POSITION TIME  TEMP    WIND        PRES    WAVE
                       AIR SEA DIR/SP/G            HT/PER
                 (UTC) (F)     (DEG/KT/KT) (MB)    (FT/S)
PASCAGOULA       1742   91      40/  3/  9 1016.6
WAVELAND YACHT   1742   89 86   10/  2/  4 1017.6
GRAND ISLE       1742   90 87   20/  6/  7 1018.3
SOUTHWEST PASS   1742   89     350/  9/ 10   N/A
NEW CANAL        1742   86 87  350/  5/  6 1018.0
SHELL BEACH      1742   85 90  360/  5/  5 1018.1

OFFSHORE STATIONS

STATION/POSITION TIME  TEMP    WIND        PRES    WAVE
                       AIR SEA DIR/SP/G            HT/PER
                 (UTC) (F)     (DEG/KT/KT) (MB)    (FT/S)
64 S DAUPHIN ISL 1750   86 87  330/  4/  4 1017.0    1/ 3

$$





USA.gov is the U.S. government's official web portal to all federal, state and local government web resources and services.